�������l�o���
Date,Time,MP-1(��Sv/h),MP-2(��Sv/h),MP-3(��Sv/h),MP-4(��Sv/h),MP-5(��Sv/h),MP-6(��Sv/h),MP-7(��Sv/h),MP-8(��Sv/h),����,����(m/s),���J
2022/05/25,00:00,0.574,0.845,0.544,1.014,0.724,0.346,0.594,0.559,��,2.5,��
2022/05/25,00:10,0.575,0.844,0.542,1.015,0.723,0.345,0.594,0.559,��,2.2,��
2022/05/25,00:20,0.575,0.842,0.543,1.015,0.725,0.345,0.595,0.560,��쓌,1.2,��
2022/05/25,00:30,0.575,0.843,0.543,1.016,0.726,0.345,0.594,0.561,��,0.8,��
2022/05/25,00:40,0.576,0.843,0.542,1.015,0.724,0.346,0.595,0.560,��,0.6,��
2022/05/25,00:50,0.576,0.843,0.542,1.015,0.724,0.347,0.594,0.561,-,CALM,��
2022/05/25,01:00,0.575,0.844,0.542,1.014,0.724,0.346,0.595,0.561,�k��,0.9,��
2022/05/25,01:10,0.576,0.841,0.542,1.015,0.723,0.344,0.594,0.560,�k,1.1,��
2022/05/25,01:20,0.575,0.842,0.545,1.015,0.726,0.346,0.594,0.561,�k�k��,0.9,��
2022/05/25,01:30,0.574,0.843,0.544,1.015,0.724,0.346,0.594,0.559,�k��,1.2,��
2022/05/25,01:40,0.574,0.845,0.544,1.013,0.725,0.345,0.595,0.561,�k�k��,1.4,��
2022/05/25,01:50,0.575,0.843,0.544,1.015,0.726,0.345,0.594,0.561,�k�k��,2.2,��
2022/05/25,02:00,0.575,0.843,0.543,1.017,0.727,0.346,0.595,0.560,�k��,3.1,��
2022/05/25,02:10,0.575,0.843,0.543,1.016,0.726,0.347,0.596,0.560,�k�k��,4.2,��
2022/05/25,02:20,0.574,0.844,0.544,1.015,0.726,0.345,0.595,0.561,�k�k��,3.1,��
2022/05/25,02:30,0.576,0.844,0.545,1.017,0.724,0.347,0.594,0.560,�k�k��,2.6,��
2022/05/25,02:40,0.576,0.842,0.542,1.016,0.724,0.346,0.596,0.561,�k�k��,2.9,��
2022/05/25,02:50,0.574,0.843,0.543,1.017,0.725,0.347,0.594,0.560,�k�k��,2.0,��
2022/05/25,03:00,0.575,0.843,0.543,1.015,0.723,0.346,0.594,0.560,�k�k��,2.2,��
2022/05/25,03:10,0.575,0.840,0.543,1.016,0.724,0.347,0.596,0.560,�k�k��,1.7,��
2022/05/25,03:20,0.574,0.843,0.544,1.015,0.725,0.346,0.597,0.560,�k�k��,1.5,��
2022/05/25,03:30,0.574,0.842,0.543,1.014,0.725,0.346,0.595,0.561,�k��,1.4,��
2022/05/25,03:40,0.576,0.841,0.542,1.013,0.724,0.346,0.593,0.559,���k��,1.4,��
2022/05/25,03:50,0.573,0.842,0.543,1.015,0.724,0.346,0.595,0.561,���k��,1.7,��
2022/05/25,04:00,0.575,0.843,0.542,1.014,0.725,0.347,0.596,0.561,�k��,2.2,��
2022/05/25,04:10,0.574,0.841,0.543,1.015,0.724,0.346,0.595,0.559,�k��,2.0,��
2022/05/25,04:20,0.576,0.840,0.543,1.015,0.722,0.346,0.593,0.559,�k�k��,2.6,��
2022/05/25,04:30,0.575,0.842,0.543,1.016,0.723,0.345,0.595,0.560,�k�k��,3.0,��
2022/05/25,04:40,0.574,0.841,0.543,1.015,0.725,0.346,0.595,0.559,�k�k��,3.0,��
2022/05/25,04:50,0.574,0.842,0.544,1.016,0.723,0.348,0.595,0.560,�k�k��,3.2,��
2022/05/25,05:00,0.574,0.843,0.541,1.016,0.724,0.346,0.594,0.559,�k�k��,2.3,��
2022/05/25,05:10,0.575,0.843,0.544,1.016,0.723,0.346,0.594,0.561,�k�k��,1.5,��
2022/05/25,05:20,0.575,0.841,0.543,1.017,0.724,0.347,0.595,0.560,�k,2.2,��
2022/05/25,05:30,0.574,0.841,0.544,1.014,0.725,0.347,0.596,0.560,�k,2.2,��
2022/05/25,05:40,0.575,0.842,0.542,1.016,0.723,0.347,0.596,0.561,�k�k��,2.6,��
2022/05/25,05:50,0.574,0.841,0.543,1.016,0.724,0.345,0.594,0.559,�k,3.1,��
2022/05/25,06:00,0.575,0.841,0.544,1.016,0.725,0.345,0.595,0.560,�k,3.2,��
2022/05/25,06:10,0.576,0.842,0.543,1.016,0.726,0.345,0.596,0.560,�k�k��,3.3,��
2022/05/25,06:20,0.574,0.843,0.541,1.015,0.725,0.346,0.597,0.560,�k�k��,1.4,��
2022/05/25,06:30,0.576,0.845,0.544,1.018,0.725,0.346,0.595,0.562,�k�k��,0.9,��
2022/05/25,06:40,0.576,0.842,0.544,1.016,0.723,0.345,0.596,0.559,�k,0.6,��
2022/05/25,06:50,0.575,0.843,0.543,1.015,0.724,0.346,0.597,0.561,�k�k��,1.1,��
2022/05/25,07:00,0.575,0.841,0.544,1.016,0.724,0.344,0.595,0.562,�k��,1.7,��
2022/05/25,07:10,0.575,0.840,0.543,1.015,0.725,0.344,0.594,0.561,�k�k��,1.5,��
2022/05/25,07:20,0.574,0.840,0.544,1.018,0.725,0.343,0.596,0.561,���k��,1.9,��
2022/05/25,07:30,0.574,0.841,0.542,1.016,0.726,0.344,0.594,0.561,���k��,1.7,��
2022/05/25,07:40,0.575,0.841,0.545,1.018,0.724,0.345,0.594,0.561,�k��,2.5,��
2022/05/25,07:50,0.572,0.841,0.544,1.016,0.722,0.344,0.592,0.559,���k��,2.9,��
2022/05/25,08:00,0.573,0.840,0.543,1.017,0.726,0.345,0.594,0.560,�k��,2.8,��
2022/05/25,08:10,0.574,0.843,0.544,1.016,0.724,0.345,0.593,0.559,�k�k��,3.5,��
2022/05/25,08:20,0.574,0.840,0.543,1.018,0.724,0.343,0.591,0.558,�k��,3.2,��
2022/05/25,08:30,0.572,0.841,0.542,1.016,0.713,0.344,0.591,0.557,�k��,3.4,��
2022/05/25,08:40,0.572,0.842,0.541,1.016,0.719,0.343,0.592,0.559,�k��,3.3,��
2022/05/25,08:50,0.572,0.841,0.542,1.018,0.723,0.341,0.591,0.558,�k�k��,3.0,��
2022/05/25,09:00,0.574,0.841,0.541,1.017,0.718,0.344,0.591,0.559,�k�k��,3.2,��
2022/05/25,09:10,0.573,0.839,0.540,1.016,0.721,0.344,0.592,0.559,�k�k��,3.4,��
2022/05/25,09:20,0.573,0.839,0.540,1.014,0.723,0.344,0.593,0.558,�k��,2.6,��
2022/05/25,09:30,0.573,0.840,0.539,1.017,0.723,0.343,0.593,0.560,�k�k��,3.0,��
2022/05/25,09:40,0.574,0.841,0.539,1.016,0.721,0.343,0.594,0.557,�k��,2.0,��
2022/05/25,09:50,0.573,0.842,0.540,1.016,0.724,0.343,0.594,0.559,��,2.8,��
2022/05/25,10:00,0.573,0.843,0.538,1.017,0.723,0.343,0.593,0.559,�k��,2.5,��
2022/05/25,10:10,0.574,0.840,0.540,1.016,0.724,0.344,0.594,0.560,�k��,2.5,��
2022/05/25,10:20,0.575,0.843,0.539,1.015,0.724,0.343,0.594,0.558,�k��,2.6,��
2022/05/25,10:30,0.573,0.841,0.539,1.016,0.725,0.343,0.593,0.558,���k��,2.0,��
2022/05/25,10:40,0.575,0.842,0.540,1.016,0.723,0.343,0.594,0.559,�k��,2.6,��
2022/05/25,10:50,0.575,0.842,0.543,1.014,0.724,-,0.594,0.559,�k��,3.2,��
2022/05/25,11:00,0.575,0.843,0.543,1.017,0.725,-,0.594,0.558,���k��,2.6,��
2022/05/25,11:10,0.575,0.841,0.543,1.016,0.726,-,0.594,0.558,�k��,3.0,��
2022/05/25,11:20,0.577,0.842,0.543,1.015,0.725,-,0.595,0.558,���k��,2.0,��
2022/05/25,11:30,0.575,0.843,0.544,1.015,0.726,-,0.594,0.558,���k��,1.9,��
2022/05/25,11:40,0.575,0.843,0.542,1.017,0.726,-,0.594,0.559,���k��,1.1,��
2022/05/25,11:50,0.576,0.844,0.542,1.017,0.727,-,0.596,0.560,��,1.4,��
2022/05/25,12:00,0.575,0.846,0.544,1.015,0.726,-,0.595,0.559,���쓌,1.7,��
2022/05/25,12:10,0.577,0.847,0.545,1.016,0.726,-,0.596,0.560,��,2.2,��
2022/05/25,12:20,0.576,0.847,0.544,1.017,0.725,-,0.595,0.560,���쓌,2.0,��
2022/05/25,12:30,0.579,0.847,0.544,1.017,0.727,-,0.596,0.559,�쓌,2.5,��
2022/05/25,12:40,0.576,0.846,0.543,1.014,0.728,-,0.598,0.559,�쓌,3.1,��
2022/05/25,12:50,0.577,0.847,0.546,1.014,0.727,-,0.597,0.560,�쓌,2.8,��
2022/05/25,13:00,0.576,0.848,0.548,1.012,0.727,-,0.596,0.560,���쓌,2.0,��
2022/05/25,13:10,0.577,0.846,0.546,1.015,0.727,-,0.597,0.561,�쓌,2.3,��
2022/05/25,13:20,0.578,0.844,0.548,1.017,0.727,-,0.596,0.559,�쓌,2.8,��
2022/05/25,13:30,0.579,0.843,0.547,1.016,0.726,-,0.597,0.558,�쓌,2.3,��
2022/05/25,13:40,0.579,0.846,0.547,1.015,0.727,-,0.597,0.560,�쓌,3.6,��
2022/05/25,13:50,0.577,0.844,0.547,1.016,0.728,0.345,0.597,0.559,�쓌,3.4,��
2022/05/25,14:00,0.576,0.845,0.546,1.017,0.728,0.344,0.596,0.558,���쓌,2.6,��
2022/05/25,14:10,0.579,0.846,0.547,1.018,0.729,0.345,0.595,0.562,�쓌,4.1,��
2022/05/25,14:20,0.575,0.847,0.548,1.018,0.728,0.346,0.596,0.561,��쓌,4.9,��
2022/05/25,14:30,0.577,0.844,0.548,1.018,0.729,0.345,0.596,0.560,��쓌,8.2,��
2022/05/25,14:40,0.578,0.845,0.547,1.019,0.729,0.345,0.596,0.560,��쓌,9.0,��
2022/05/25,14:50,0.579,0.845,0.549,1.017,0.727,0.347,0.598,0.558,��쓌,10.0,��
2022/05/25,15:00,0.579,0.844,0.547,1.019,0.729,0.347,0.596,0.561,��쓌,10.2,��
2022/05/25,15:10,0.579,0.846,0.549,1.018,0.729,0.347,0.597,0.560,��쓌,12.7,��
2022/05/25,15:20,0.580,0.844,0.548,1.019,0.729,0.347,0.598,0.560,��,11.6,��
2022/05/25,15:30,0.579,0.845,0.549,1.018,0.728,0.346,0.599,0.559,��,12.2,��
2022/05/25,15:40,0.579,0.848,0.551,1.018,0.730,0.345,0.598,0.560,��쓌,12.4,��
2022/05/25,15:50,0.578,0.847,0.549,1.016,0.729,0.347,0.599,0.560,��쓌,11.8,�L
2022/05/25,16:00,0.581,0.850,0.549,1.019,0.730,0.347,0.598,0.561,��,12.7,�L
2022/05/25,16:10,0.580,0.847,0.549,1.020,0.730,0.345,0.598,0.563,��,12.5,��
2022/05/25,16:20,0.577,0.849,0.548,1.018,0.729,0.346,0.598,0.560,��,11.1,��
2022/05/25,16:30,0.579,0.847,0.548,1.020,0.728,0.344,0.597,0.559,��,11.8,��
2022/05/25,16:40,0.579,0.846,0.549,1.021,0.728,0.346,0.597,0.560,��,9.9,��
2022/05/25,16:50,0.578,0.846,0.550,1.018,0.729,0.345,0.597,0.561,��,11.3,��
2022/05/25,17:00,0.580,0.848,0.550,1.020,0.730,0.345,0.596,0.561,��,9.8,��
2022/05/25,17:10,0.584,0.848,0.547,1.018,0.730,0.344,0.596,0.560,��,11.3,��
2022/05/25,17:20,0.582,0.848,0.548,1.019,0.729,0.345,0.595,0.560,��,8.6,��
2022/05/25,17:30,0.582,0.848,0.547,1.020,0.730,0.346,0.595,0.559,��,8.8,��
2022/05/25,17:40,0.580,0.849,0.548,1.020,0.730,0.344,0.595,0.560,��,9.4,��
2022/05/25,17:50,0.581,0.847,0.546,1.021,0.730,0.344,0.594,0.560,��,9.2,��
2022/05/25,18:00,0.579,0.848,0.548,1.022,0.729,0.345,0.595,0.560,��,9.0,��
2022/05/25,18:10,0.580,0.848,0.546,1.021,0.731,0.344,0.595,0.561,��,9.4,��
2022/05/25,18:20,0.580,0.846,0.547,1.022,0.728,0.346,0.594,0.562,��,8.5,��
2022/05/25,18:30,0.582,0.847,0.547,1.024,0.729,0.345,0.592,0.561,��,8.3,��
2022/05/25,18:40,0.580,0.848,0.547,1.021,0.729,0.345,0.594,0.562,��,8.9,��
2022/05/25,18:50,0.580,0.847,0.545,1.023,0.727,0.346,0.595,0.561,��,9.3,��
2022/05/25,19:00,0.580,0.850,0.547,1.023,0.729,0.345,0.596,0.563,��,8.6,��
2022/05/25,19:10,0.581,0.849,0.548,1.021,0.730,0.345,0.595,0.563,��,9.9,��
2022/05/25,19:20,0.581,0.848,0.548,1.022,0.729,0.345,0.595,0.564,��,8.4,��
2022/05/25,19:30,0.582,0.849,0.548,1.023,0.729,0.347,0.595,0.562,��,9.5,��
2022/05/25,19:40,0.580,0.851,0.548,1.024,0.729,0.347,0.597,0.563,��,8.5,��
2022/05/25,19:50,0.580,0.850,0.550,1.023,0.729,0.346,0.596,0.562,��,9.7,��
2022/05/25,20:00,0.581,0.851,0.552,1.023,0.730,0.346,0.595,0.562,��,9.7,��
2022/05/25,20:10,0.581,0.850,0.550,1.024,0.729,0.346,0.595,0.564,��,8.8,��
2022/05/25,20:20,0.580,0.851,0.549,1.024,0.730,0.345,0.594,0.563,��,7.4,��
2022/05/25,20:30,0.579,0.848,0.549,1.023,0.729,0.345,0.598,0.561,��,7.4,��
2022/05/25,20:40,0.580,0.851,0.550,1.023,0.729,0.345,0.597,0.562,��,7.0,��
2022/05/25,20:50,0.580,0.851,0.550,1.024,0.730,0.347,0.596,0.563,��,8.5,��
2022/05/25,21:00,0.580,0.850,0.551,1.025,0.730,0.347,0.596,0.562,��,8.2,��
2022/05/25,21:10,0.581,0.853,0.551,1.022,0.729,0.345,0.594,0.562,��,7.1,��
2022/05/25,21:20,0.583,0.851,0.549,1.022,0.730,0.346,0.596,0.560,��,7.9,��
2022/05/25,21:30,0.581,0.850,0.552,1.022,0.730,0.344,0.597,0.563,��,7.9,��
2022/05/25,21:40,0.582,0.850,0.550,1.023,0.731,0.346,0.597,0.562,��,6.9,��
2022/05/25,21:50,0.583,0.853,0.551,1.024,0.730,0.345,0.596,0.563,��,7.2,��
2022/05/25,22:00,0.581,0.849,0.549,1.023,0.732,0.345,0.597,0.561,��,7.0,��
2022/05/25,22:10,0.581,0.850,0.549,1.022,0.730,0.345,0.596,0.563,��,7.9,��
2022/05/25,22:20,0.583,0.850,0.549,1.021,0.732,0.347,0.596,0.561,��,8.2,��
2022/05/25,22:30,0.581,0.851,0.549,1.024,0.730,0.345,0.597,0.562,��,6.9,��
2022/05/25,22:40,0.580,0.851,0.550,1.021,0.727,0.345,0.597,0.562,��,7.9,��
2022/05/25,22:50,0.582,0.854,0.549,1.025,0.729,0.345,0.596,0.562,��,8.0,��
2022/05/25,23:00,0.581,0.849,0.549,1.023,0.730,0.344,0.597,0.561,��,8.3,��
2022/05/25,23:10,0.582,0.850,0.551,1.026,0.730,0.346,0.596,0.561,��,7.7,��
2022/05/25,23:20,0.582,0.850,0.549,1.024,0.725,0.346,0.598,0.562,��,7.0,��
2022/05/25,23:30,0.583,0.852,0.549,1.023,0.722,0.346,0.597,0.562,��,8.6,��
2022/05/25,23:40,0.583,0.852,0.550,1.024,0.727,0.346,0.597,0.561,��,8.2,��
2022/05/25,23:50,0.581,0.852,0.550,1.022,0.731,0.346,0.596,0.563,��,8.3,��
